EW5411 Weather Reports


time (UTC)temp
F
wind
direction
speed
knots
gust
knots
rain 1hr
in
rain 24hr
in
rain mn
in
humidity
%
barometer
mb
20260507201502 58 264 5.2 9.6 0.00 0.53 0.11 74 1008.5
20260507200002 58 234 4.3 10.4 0.00 0.53 0.11 73 1008.6
20260507194501 56 146 0.0 7.8 0.00 0.53 0.11 78 1008.8
20260507193100 56 232 1.7 7.0 0.00 0.53 0.11 75 1009.0
20260507191600 56 213 0.9 6.1 0.00 0.53 0.11 75 1009.3
20260507190100 56 146 1.7 12.2 0.00 0.53 0.11 74 1009.3
20260507184605 57 221 0.9 7.8 0.00 0.53 0.11 74 1009.4
20260507183058 57 237 2.6 7.8 0.00 0.53 0.11 72 1009.4
20260507181604 58 161 1.7 5.2 0.00 0.53 0.11 73 1009.8
20260507180057 57 158 5.2 10.4 0.00 0.53 0.11 74 1009.9
20260507174606 58 200 1.7 10.4 0.00 0.53 0.11 71 1010.1
20260507173055 56 223 1.7 7.0 0.00 0.53 0.11 73 1010.1
20260507171602 56 161 2.6 6.1 0.00 0.53 0.11 67 1010.2
20260507170055 56 115 2.6 5.2 0.00 0.53 0.11 72 1010.5
20260507164553 55 267 0.9 4.3 0.00 0.53 0.11 72 1010.8
20260507163055 55 241 0.9 5.2 0.00 0.53 0.11 74 1011.0
20260507161551 54 242 0.9 3.5 0.00 0.53 0.11 79 1011.5
20260507160054 54 240 1.7 4.3 0.00 0.53 0.11 76 1011.6
20260507154551 54 237 0.9 4.3 0.00 0.53 0.11 76 1011.7
20260507153058 54 313 0.0 1.7 0.00 0.53 0.11 71 1011.3
20260507151549 53 77 0.0 1.7 0.00 0.53 0.11 79 1011.4
20260507150047 52 217 0.0 0.9 0.00 0.53 0.11 77 1011.6
20260507144547 52 158 2.6 4.3 0.00 0.54 0.11 78 1011.7
20260507143047 52 113 0.0 2.6 0.00 0.54 0.11 81 1011.9
20260507141546 52 26 0.0 2.6 0.00 0.54 0.11 80 1012.1
20260507140048 52 37 0.0 3.5 0.00 0.54 0.11 81 1012.2
20260507134544 52 200 0.9 5.2 0.00 0.59 0.11 83 1012.1
20260507133044 52 60 0.0 5.2 0.00 0.59 0.11 85 1012.0
20260507131553 52 64 0.0 4.3 0.00 0.59 0.11 86 1012.1
20260507130045 53 41 0.9 2.6 0.00 0.59 0.11 88 1012.1
20260507124547 53 336 0.9 2.6 0.00 0.64 0.11 87 1012.1
20260507123037 53 156 0.0 2.6 0.00 0.64 0.11 90 1012.0
20260507121535 53 163 0.9 1.7 0.00 0.64 0.11 92 1011.6
20260507120040 53 86 0.9 2.6 0.00 0.64 0.11 93 1011.5
20260507114534 52 269 0.0 0.9 0.00 0.65 0.11 94 1011.5
20260507113033 52 269 0.0 0.9 0.00 0.65 0.11 94 1011.3
20260507111531 52 269 0.0 1.7 0.00 0.65 0.11 94 1011.3
20260507110030 52 288 0.0 1.7 0.00 0.65 0.11 94 1011.1
20260507104529 52 240 0.0 2.6 0.00 0.65 0.11 95 1011.0
20260507103026 52 185 0.0 1.7 0.00 0.65 0.11 94 1011.0
20260507101526 52 244 0.0 1.7 0.00 0.65 0.11 94 1010.9
20260507100033 53 101 0.0 1.7 0.00 0.65 0.11 94 1010.7
20260507094523 53 5 0.0 0.0 0.00 0.65 0.11 92 1010.5
20260507093021 53 5 0.0 1.7 0.00 0.65 0.11 89 1010.5
20260507091519 54 323 0.0 2.6 0.00 0.65 0.11 86 1010.5
20260507090022 54 313 0.9 4.3 0.00 0.65 0.11 86 1010.2
20260507084519 53 323 0.9 2.6 0.00 0.65 0.11 87 1009.9
20260507083014 54 331 0.9 5.2 0.00 0.65 0.11 88 1010.1
20260507081525 55 300 1.7 7.8 0.00 0.65 0.11 87 1010.3
20260507080009 55 340 2.6 6.1 0.00 0.65 0.11 88 1010.1
20260507074515 55 300 1.7 2.6 0.00 0.65 0.11 95 1010.0
20260507073005 55 148 0.9 4.3 0.00 0.65 0.11 95 1009.3
20260507071506 55 38 0.0 0.9 0.00 0.65 0.11 95 1009.5
20260507070009 55 51 0.9 3.5 0.00 0.65 0.11 94 1009.2
20260507064507 55 5 0.0 2.6 0.00 0.65 0.11 94 1009.6
20260507063059 56 320 1.7 4.3 0.00 0.65 0.11 94 1009.5
20260507061601 56 13 0.9 3.5 0.00 0.65 0.11 95 1009.3
20260507054637 57 85 2.6 7.8 0.00 0.65 0.11 94 1009.9
20260507053053 58 211 1.7 2.6 0.01 0.65 0.11 96 1009.3
20260507051549 59 281 1.7 3.5 0.03 0.65 0.11 96 1009.3
20260507050054 59 253 1.7 5.2 0.11 0.65 0.11 95 1008.8
20260507044552 60 234 1.7 6.1 0.11 0.65 0.11 95 1008.6
20260507043045 61 268 0.9 7.0 0.11 0.64 0.10 95 1008.8
20260507041542 62 190 2.6 3.5 0.12 0.62 0.08 96 1008.4
20260507040038 62 288 1.7 2.6 0.22 0.54 0.00 96 1009.5
20260507034536 62 162 0.0 1.7 0.30 0.54 0.54 96 1009.3
20260507033034 62 5 0.9 2.6 0.30 0.53 0.53 95 1009.4
20260507031534 62 355 0.9 2.6 0.28 0.50 0.50 95 1009.1
20260507030041 63 297 0.0 1.7 0.09 0.31 0.31 95 1008.9
20260507024538 63 338 0.9 1.7 0.02 0.24 0.24 95 1008.8
20260507023032 63 150 0.0 1.7 0.01 0.23 0.23 95 1008.7
20260507021531 63 20 0.0 2.6 0.00 0.22 0.22 95 1008.6
20260507020031 63 18 0.9 2.6 0.03 0.22 0.22 95 1008.3
20260507014544 63 325 0.0 2.6 0.03 0.22 0.22 95 1008.3
20260507013028 63 341 0.0 0.9 0.05 0.22 0.22 94 1008.1
20260507011532 64 351 0.0 1.7 0.10 0.22 0.22 94 1008.4
20260507010032 64 20 0.0 1.7 0.07 0.19 0.19 93 1008.5
20260507004526 64 325 0.0 2.6 0.07 0.19 0.19 92 1008.4
20260507003026 64 355 1.7 3.5 0.05 0.17 0.17 91 1008.1
20260507001527 65 290 0.0 3.5 0.00 0.12 0.12 88 1007.9
20260507000032 66 246 0.0 1.7 0.00 0.12 0.12 85 1007.5
20260506234523 67 239 0.0 3.5 0.00 0.12 0.12 82 1007.7
20260506233023 68 206 0.0 4.3 0.00 0.12 0.12 81 1007.4
20260506231522 69 226 0.0 6.1 0.00 0.12 0.12 80 1007.2
20260506230021 69 217 0.9 3.5 0.00 0.12 0.12 80 1006.9
20260506224521 69 360 1.7 5.2 0.00 0.12 0.12 79 1007.3
20260506223019 69 226 2.6 7.0 0.00 0.12 0.12 79 1007.3
20260506221520 69 254 1.7 8.7 0.00 0.12 0.12 80 1007.1
20260506220023 69 181 1.7 7.8 0.00 0.12 0.12 79 1007.1
20260506214518 69 212 1.7 5.2 0.00 0.12 0.12 79 1006.9
20260506213016 69 205 1.7 6.1 0.00 0.12 0.12 79 1007.0
20260506211513 69 222 0.0 4.3 0.00 0.12 0.12 81 1007.0
20260506210012 68 218 0.9 6.1 0.00 0.12 0.12 81 1006.8
20260506204515 68 238 2.6 7.0 0.00 0.12 0.12 81 1006.7
20260506203011 67 226 1.7 7.8 0.00 0.12 0.12 81 1006.7